Simultaneous Nadir Overpasses (SNOs) Predictions

Prediction of SNOs between NOAA-15 and METOP-C Satellite Orbit:

Table of predicted SNOs for the next 14.0 days since TLE Epoch: 7/17/2021
Index Date (NOAA-15) Time (NOAA-15) Lat,Lon (NOAA-15) SZA (NOAA-15 ) Date (METOP-C) Time (METOP-C) Lat,Lon (METOP-C) SZA (METOP-C ) Distance(km) Time Diff (sec)
1 07/18/2021 04:27:07 81.03, 150.32 61.78 07/18/2021 04:25:55 81.02, 150.32 61.74 1.27 72
2 07/18/2021 05:17:34 -81.03, -42.29 118.22 07/18/2021 05:16:36 -81.02, -42.27 118.24 0.93 58
3 07/18/2021 06:08:09 81.03, 125.13 61.80 07/18/2021 06:07:16 81.03, 125.19 61.78 0.99 53
4 07/18/2021 06:58:36 -81.03, -67.48 118.20 07/18/2021 06:57:57 -81.03, -67.41 118.21 1.30 39
5 07/18/2021 07:49:11 81.02, 99.94 61.82 07/18/2021 07:48:37 81.03, 100.05 61.82 2.35 34
6 07/18/2021 08:39:38 -81.02, -92.67 118.18 07/18/2021 08:39:18 -81.04, -92.55 118.17 2.75 20
7 07/18/2021 09:30:14 81.04, 74.38 61.81 07/18/2021 09:29:59 81.03, 74.54 61.81 3.02 15
8 07/18/2021 10:20:41 -81.04,-118.23 118.19 07/18/2021 10:20:40 -81.03,-118.05 118.18 3.15 1
9 07/18/2021 11:11:16 81.03, 49.19 61.83 07/18/2021 11:11:21 81.02, 49.04 61.80 2.91 5
10 07/18/2021 12:01:43 -81.03,-143.42 118.17 07/18/2021 12:02:02 -81.02,-143.56 118.19 2.54 19
11 07/18/2021 12:52:18 81.03, 24.00 61.84 07/18/2021 12:52:42 81.03, 23.90 61.84 1.63 24
12 07/18/2021 13:42:45 -81.03,-168.62 118.16 07/18/2021 13:43:23 -81.03,-168.70 118.15 1.42 38
13 07/18/2021 14:33:20 81.03, -1.19 61.86 07/18/2021 14:34:03 81.04, -1.23 61.88 1.40 43
14 07/18/2021 15:23:47 -81.03, 166.19 118.14 07/18/2021 15:24:44 -81.04, 166.17 118.11 1.62 57
15 07/18/2021 16:14:23 81.04, -26.75 61.85 07/18/2021 16:15:25 81.03, -26.74 61.87 1.04 62



Historial Predications of SNOs between NOAA-15 and METOP-C
